Home   Weather   Santander   Past weeks
Flag for Spain

Past Weather in Santander, Spain — Yesterday and Last 2 Weeks

Now
79 °F

Passing clouds.


Feels Like: 79 °F
Forecast: 79 / 63 °F
Wind: 3 mph from West

Location: Santander / Parayas

Current Time: Sep 20, 2019 at 10:39:33 pm

Latest Report: Sep 20, 2019 at 9:30 pm


Visibility: N/A

Pressure: 29.77 "Hg

Humidity: 45%

Dew Point: 55 °F

Location of SantanderLocation

Past Weather in Santander — Graph

°F

Santander Temperature Yesterday

Maximum temperature yesterday: 73 °F (at 1:30 pm)
Minimum temperature yesterday: 63 °F (at 3:00 am)
Average temperature yesterday: 67 °F

High & Low Weather Summary for the Past Weeks

 TemperatureHumidityPressure
High90 °F (Sep 20, 3:30 pm)100% (Sep 6, 7:00 am)30.45 "Hg (Sep 6, 7:00 am)
Low54 °F (Sep 7, 5:30 am)35% (Sep 20, 9:00 pm)29.77 "Hg (Sep 20, 8:00 pm)
Average66 °F83%30.18 "Hg
* Reported Sep 5 9:00 pm — Sep 20 9:00 pm, Santander. Weather by CustomWeather, © 2019

Note: Actual official high and low records may vary slightly from our data, if they occured in-between our weather recording intervals... More about our weather records

Advertising

Santander Weather History for the Previous 24 Hours

Scroll right to see more
 ConditionsComfort  
Time TempWeatherWind HumidityBarometerVisibility
9:00 pm
Fri, Sep 20
82 °FPassing clouds.15 mph35%29.80 "HgN/A
8:30 pm77 °FLight rain. Passing clouds.13 mph47%29.77 "HgN/A
8:00 pm79 °FPassing clouds.8 mph48%29.77 "HgN/A
7:30 pm82 °FPassing clouds.12 mph48%29.80 "HgN/A
7:00 pm82 °FPassing clouds.9 mph51%29.80 "HgN/A
6:30 pm81 °FLight rain. Passing clouds.8 mph58%29.83 "HgN/A
6:00 pm82 °FPassing clouds.7 mph55%29.80 "HgN/A
5:30 pm84 °FPassing clouds.6 mph51%29.80 "HgN/A
5:00 pm88 °FPassing clouds.5 mph43%29.80 "HgN/A
4:30 pm90 °FPassing clouds.9 mph41%29.80 "HgN/A
4:00 pm88 °FPassing clouds.9 mph40%29.83 "HgN/A
3:30 pm90 °FPassing clouds.9 mph41%29.83 "HgN/A
3:00 pm88 °FPassing clouds.9 mph43%29.83 "HgN/A
2:30 pm88 °FPassing clouds.3 mph46%29.86 "HgN/A
2:00 pm86 °FPassing clouds.6 mph52%29.86 "HgN/A
1:30 pm86 °FPassing clouds.5 mph46%29.86 "HgN/A
1:00 pm84 °FPassing clouds.6 mph48%29.89 "HgN/A
12:30 pm82 °FSunny.13 mph51%29.89 "Hg10 mi
12:00 pm81 °FPassing clouds.13 mph58%29.89 "HgN/A
11:30 am70 °FSunny.1 mph83%29.92 "Hg10 mi
11:00 am66 °FSunny.2 mph88%29.92 "Hg10 mi
10:30 am64 °FPassing clouds.2 mph94%29.92 "HgN/A
10:00 am64 °FPassing clouds.No wind94%29.92 "HgN/A
9:30 am63 °FPassing clouds.No wind100%29.92 "HgN/A
9:00 am61 °FPassing clouds.No wind100%29.92 "HgN/A
8:30 am59 °FPassing clouds.3 mph100%29.92 "HgN/A
8:00 am59 °FSunny.No wind94%29.92 "Hg10 mi
7:30 am59 °FClear.1 mph94%29.92 "Hg10 mi
7:00 am59 °FClear.No wind94%29.92 "Hg10 mi
6:30 am59 °FClear.No wind94%29.92 "Hg10 mi
6:00 am59 °FClear.2 mph100%29.92 "Hg10 mi
5:30 am59 °FClear.No wind100%29.95 "Hg10 mi
5:00 am59 °FCool.No wind100%29.95 "Hg4 mi
4:30 am59 °FCool.No wind94%29.95 "Hg4 mi
4:00 am59 °FCool.No wind94%29.98 "Hg4 mi
3:30 am59 °FCool.No wind100%29.98 "Hg4 mi
3:00 am59 °FCool.No wind94%29.98 "Hg4 mi
2:30 am61 °FCool.1 mph94%30.01 "Hg5 mi
2:00 am61 °FCool.5 mph94%30.01 "Hg4 mi
1:30 am61 °FCool.2 mph94%30.01 "Hg5 mi
1:00 am61 °FCool.No wind88%30.04 "Hg5 mi
12:30 am61 °FCool.No wind94%30.04 "Hg4 mi
12:00 am61 °FCool.No wind88%30.04 "Hg4 mi
11:30 pm
Thu, Sep 19
63 °FMild.1 mph88%30.07 "Hg5 mi
11:00 pm64 °FClear.1 mph83%30.07 "Hg10 mi
10:30 pm64 °FClear.3 mph83%30.07 "Hg10 mi
10:00 pm64 °FClear.2 mph83%30.04 "Hg10 mi
Weather by CustomWeather, © 2019

See weather overview